Location: Buckland
(65.9785°N, 161.1281°W)
Time: 21:25:12
(UTC+00:00)

PRISM - Pass Details

Date: 22 January 2021
Orbit: 565 x 584 km, 98.2° (Epoch: 06 March)

Event Time Altitude Azimuth Distance (km) Brightness Sun altitude
Rises 14:46:23 0° 21° (NNE) 2,788 ? -30.7°
Reaches altitude 10° 14:48:33 10° 18° (NNE) 1,888 ? -30.5°
Enters shadow 14:49:35 17° 15° (NNE) 1,476 ? -30.4°
